Retour au catalogue

COSMOS 1285 DEB

ActifHEO
NORAD 26680·DEBRIS·🇷🇺 Russia

Lancé Aug 4, 1981 depuis Plesetsk Cosmodrome

Loading…

Prochains Passages (prochaines 24 heures)

TLE

FraisSource: Space-Track

Époque: Sep 14, 2026, 13:35 UTC

1 26680U 81071L   26257.56612141 -.00000801  00000-0  12311-2 0  9997
2 26680  62.7570 352.6802 7434890  46.2070 354.8460  1.98413970209778

Suivez COSMOS 1285 DEB en temps réel avec AllMySat

Download on the App Store